Regional Weather Roundup
Issued by NWS Cleveland, OH

Home | Current Version | Previous Version | Graphics & Text | Print | Product List | Glossary On
Versions: 1 2 3 4 5 6 7 8 9 10 11 12 13 14 15 16 17 18 19 20 21 22 23 24 25 26 27 28 29 30 31 32 33 34 35 36 37 38 39 40 41 42 43 44 45 46 47 48 49 50
000
ASUS41 KCLE 182202
RWRCLE
OHIO REGIONAL WEATHER ROUNDUP
NATIONAL WEATHER SERVICE CLEVELAND, OH
500 PM EST THU DEC 18 2014

NOTE: "FAIR" INDICATES FEW OR NO CLOUDS BELOW 12,000 FEET WITH NO
SIGNIFICANT WEATHER AND/OR OBSTRUCTIONS TO VISIBILITY.

OHZ001>008-015>018-024>027-034-035-043-044-182300-
   NORTHWEST OHIO

CITY           SKY/WX    TMP DP  RH WIND       PRES   REMARKS
DEFIANCE       CLOUDY    30  24  78 VRB3      30.21R
FINDLAY        CLOUDY    30  23  75 W9        30.19S WCI  22
TOLEDO EXPRESS CLOUDY    30  25  81 W9        30.19R WCI  22
TOLEDO EXEC    CLOUDY    32  24  72 W10       30.20R WCI  24
LIMA           CLOUDY    31  23  72 W7        30.19S WCI  24
$$

OHZ009>014-019>023-028>033-038-089-182300-
   NORTHEAST OHIO

CITY           SKY/WX    TMP DP  RH WIND       PRES   REMARKS
CLE-HOPKINS    FLURRIES  30  24  78 SW8       30.20R WCI  22
CLE-LAKEFRONT  CLOUDY    32  25  75 SW12      30.17S WCI  23
CUY CO. ARPT   CLOUDY    32  28  86 W12       30.16S WCI  23
LORAIN-ELYRIA  CLOUDY    29  25  85 W9        30.18S WCI  20
ASHTABULA      CLOUDY    30  26  85 W6        30.14S WCI  24
AKRON-CANTON   CLOUDY    29  21  72 W8        30.16S WCI  21
WOOSTER        CLOUDY    28  22  78 SW6       30.17S WCI  22
MANSFIELD      CLOUDY    27  23  85 W7        30.16S WCI  19
YOUNGSTOWN     FLURRIES  29  23  78 W10       30.14S WCI  20
$$

OHZ042-051>053-060>062-070>072-077>081-182300-
  SOUTHWEST OHIO

CITY           SKY/WX    TMP DP  RH WIND       PRES   REMARKS
CINC-COVINGTON CLOUDY    30  19  63 CALM      30.21S
CINC-LUNKEN    CLOUDY    30  20  66 CALM      30.24F
HAMILTON       CLOUDY    30  21  69 CALM      30.24S
DAYTON         CLOUDY    29  21  72 NW3       30.21S
WRIGHT-PAT AFB NOT AVBL
DAYTON GENERAL CLOUDY    28  20  71 CALM      30.19F
WILMINGTON     CLOUDY    27  19  72 N6        30.20R WCI  20
$$

OHZ036-037-039>041-045>050-054>059-063>069-073>076-082>088-182300-
  CENTRAL AND SOUTHEAST OHIO

CITY           SKY/WX    TMP DP  RH WIND       PRES   REMARKS
COLUMBUS       CLOUDY    28  21  75 W6        30.21R WCI  22
OSU AIRPORT    CLOUDY    28  21  75 W3        30.20S
BOLTON FIELD   CLOUDY    27  21  80 CALM      30.21R
RICKENBACK AFB CLOUDY    28  22  76 W5        30.21S WCI  23
NEWARK         CLOUDY    29  21  72 W6        30.20R WCI  23
MARION         CLOUDY    29  21  72 W5        30.19S WCI  24
LANCASTER      LGT SNOW  28  22  78 W3        30.22R
ZANESVILLE     CLOUDY    28  20  71 NW3       30.20R
NEW PHILLY     CLOUDY    29  21  72 W5        30.20S WCI  24
$$



USA.gov is the U.S. government's official web portal to all federal, state and local government web resources and services.